29.03.2024;03:09;77,809;
29.03.2024;02:54;77,810;
29.03.2024;02:39;77,810;
29.03.2024;02:24;77,810;
29.03.2024;02:09;77,811;
29.03.2024;01:54;77,811;
29.03.2024;01:39;77,811;
29.03.2024;01:24;77,812;
29.03.2024;01:09;77,812;
29.03.2024;00:54;77,812;
29.03.2024;00:39;77,813;
29.03.2024;00:24;77,814;
29.03.2024;00:09;77,814;
28.03.2024;23:54;77,814;
28.03.2024;23:39;77,814;
28.03.2024;23:24;77,815;
28.03.2024;23:09;77,814;
28.03.2024;22:54;77,814;
28.03.2024;22:39;77,814;
28.03.2024;22:24;77,814;
28.03.2024;22:09;77,813;
28.03.2024;21:54;77,813;
28.03.2024;21:39;77,813;
28.03.2024;21:24;77,813;
28.03.2024;21:09;77,814;
28.03.2024;20:54;77,814;
28.03.2024;20:39;77,814;
28.03.2024;20:24;77,814;
28.03.2024;20:09;77,814;
28.03.2024;19:54;77,814;
28.03.2024;19:39;77,815;
28.03.2024;19:24;77,815;
28.03.2024;19:09;77,815;
28.03.2024;18:54;77,815;
28.03.2024;18:39;77,815;
28.03.2024;18:24;77,815;
28.03.2024;18:09;77,816;
28.03.2024;17:54;77,816;
28.03.2024;17:39;77,817;
28.03.2024;17:24;77,817;
28.03.2024;17:09;77,818;
28.03.2024;16:54;77,818;
28.03.2024;16:39;77,818;
28.03.2024;16:24;77,818;
28.03.2024;16:09;77,818;
28.03.2024;15:54;77,819;
28.03.2024;15:39;77,818;
28.03.2024;15:24;77,818;
28.03.2024;15:09;77,818;
28.03.2024;14:54;77,817;
28.03.2024;14:39;77,817;
28.03.2024;14:24;77,817;
28.03.2024;14:09;77,817;
28.03.2024;13:54;77,817;
28.03.2024;13:39;77,817;
28.03.2024;13:24;77,817;
28.03.2024;13:09;77,817;
28.03.2024;12:54;77,817;
28.03.2024;12:39;77,817;
28.03.2024;12:24;77,817;
28.03.2024;12:09;77,817;
28.03.2024;11:54;77,817;
28.03.2024;11:39;77,817;
28.03.2024;11:24;77,817;
28.03.2024;11:09;77,817;
28.03.2024;10:54;77,817;
28.03.2024;10:39;77,817;
28.03.2024;10:24;77,817;
28.03.2024;10:09;77,817;
28.03.2024;09:54;77,817;
28.03.2024;09:39;77,818;
28.03.2024;09:24;77,817;
28.03.2024;09:09;77,817;
28.03.2024;08:54;77,818;
28.03.2024;08:39;77,817;
28.03.2024;08:24;77,817;
28.03.2024;08:09;77,817;
28.03.2024;07:54;77,818;
28.03.2024;07:39;77,818;
28.03.2024;07:24;77,818;
28.03.2024;07:09;77,818;
28.03.2024;06:54;77,818;
28.03.2024;06:39;77,819;
28.03.2024;06:24;77,819;
28.03.2024;06:09;77,819;
28.03.2024;05:54;77,820;
28.03.2024;05:39;77,820;
28.03.2024;05:24;77,820;
28.03.2024;05:09;77,820;
28.03.2024;04:54;77,820;
28.03.2024;04:39;77,820;
28.03.2024;04:24;77,820;
28.03.2024;04:09;77,820;
28.03.2024;03:54;77,820;
28.03.2024;03:39;77,821;
28.03.2024;03:24;77,821;
28.03.2024;03:09;77,821;
28.03.2024;02:54;77,822;
28.03.2024;02:39;77,822;
28.03.2024;02:24;77,822;
28.03.2024;02:09;77,822;
28.03.2024;01:54;77,822;
28.03.2024;01:39;77,822;
28.03.2024;01:24;77,822;
28.03.2024;01:09;77,822;
28.03.2024;00:54;77,823;
28.03.2024;00:39;77,823;
28.03.2024;00:24;77,823;
28.03.2024;00:09;77,823;
27.03.2024;23:54;77,823;
27.03.2024;23:39;77,824;
27.03.2024;23:24;77,824;
27.03.2024;23:09;77,824;
27.03.2024;22:54;77,824;
27.03.2024;22:39;77,824;
27.03.2024;22:24;77,824;
27.03.2024;22:09;77,825;
27.03.2024;21:54;77,825;
27.03.2024;21:39;77,825;
27.03.2024;21:24;77,826;
27.03.2024;21:09;77,826;
27.03.2024;20:54;77,826;
27.03.2024;20:39;77,826;
27.03.2024;20:24;77,825;
27.03.2024;20:09;77,825;
27.03.2024;19:54;77,825;
27.03.2024;19:39;77,825;
27.03.2024;19:24;77,825;
27.03.2024;19:09;77,825;
27.03.2024;18:54;77,825;
27.03.2024;18:39;77,825;
27.03.2024;18:24;77,825;
27.03.2024;18:09;77,825;
27.03.2024;17:54;77,826;
27.03.2024;17:39;77,826;
27.03.2024;17:24;77,826;
27.03.2024;17:09;77,826;
27.03.2024;16:54;77,827;
27.03.2024;16:39;77,827;
27.03.2024;16:24;77,827;
27.03.2024;16:09;77,827;
27.03.2024;15:54;77,827;
27.03.2024;15:39;77,827;
27.03.2024;15:24;77,827;
27.03.2024;15:09;77,828;
27.03.2024;14:54;77,828;
27.03.2024;14:39;77,828;
27.03.2024;14:24;77,828;
27.03.2024;14:09;77,828;
27.03.2024;13:54;77,828;
27.03.2024;13:39;77,828;
27.03.2024;13:24;77,828;
27.03.2024;13:09;77,828;
27.03.2024;12:54;77,828;
27.03.2024;12:39;77,828;
27.03.2024;12:24;77,828;
27.03.2024;12:09;77,828;
27.03.2024;11:54;77,828;
27.03.2024;11:39;77,828;
27.03.2024;11:24;77,828;
27.03.2024;11:09;77,828;
27.03.2024;10:54;77,828;
27.03.2024;10:39;77,828;
27.03.2024;10:24;77,828;
27.03.2024;10:09;77,828;
27.03.2024;09:54;77,828;
27.03.2024;09:39;77,828;
27.03.2024;09:24;77,828;
27.03.2024;09:09;77,828;
27.03.2024;08:54;77,828;
27.03.2024;08:39;77,828;
27.03.2024;08:24;77,828;
27.03.2024;08:09;77,828;
27.03.2024;07:54;77,828;
27.03.2024;07:39;77,828;
27.03.2024;07:24;77,828;
27.03.2024;07:09;77,829;
27.03.2024;06:54;77,829;
27.03.2024;06:39;77,829;
27.03.2024;06:24;77,829;
27.03.2024;06:09;77,829;
27.03.2024;05:54;77,829;
27.03.2024;05:39;77,829;
27.03.2024;05:24;77,829;
27.03.2024;05:09;77,829;
27.03.2024;04:54;77,828;
27.03.2024;04:39;77,828;
27.03.2024;04:24;77,828;
27.03.2024;04:09;77,829;
27.03.2024;03:54;77,829;
27.03.2024;03:39;77,829;
27.03.2024;03:24;77,829;
27.03.2024;03:09;77,829;
27.03.2024;02:54;77,829;
27.03.2024;02:39;77,829;
27.03.2024;02:24;77,829;
27.03.2024;02:08;77,829;
27.03.2024;01:54;77,829;
27.03.2024;01:38;77,829;
27.03.2024;01:23;77,829;
27.03.2024;01:08;77,829;
27.03.2024;00:53;77,829;
27.03.2024;00:38;77,829;
27.03.2024;00:23;77,829;
27.03.2024;00:08;77,829;
26.03.2024;23:53;77,829;
26.03.2024;23:38;77,829;
26.03.2024;23:23;77,830;
26.03.2024;23:08;77,830;
26.03.2024;22:53;77,830;
26.03.2024;22:38;77,830;
26.03.2024;22:23;77,830;
26.03.2024;22:09;77,830;
26.03.2024;21:53;77,830;
26.03.2024;21:38;77,830;
26.03.2024;21:23;77,831;
26.03.2024;21:08;77,831;
26.03.2024;20:53;77,831;
26.03.2024;20:38;77,831;
26.03.2024;20:23;77,831;
26.03.2024;20:08;77,831;
26.03.2024;19:53;77,831;
26.03.2024;19:38;77,831;
26.03.2024;19:23;77,831;
26.03.2024;19:08;77,831;
26.03.2024;18:53;77,831;
26.03.2024;18:38;77,831;
26.03.2024;18:23;77,832;
26.03.2024;18:08;77,832;
26.03.2024;17:53;77,832;
26.03.2024;17:39;77,832;
26.03.2024;17:23;77,833;
26.03.2024;17:08;77,833;
26.03.2024;16:53;77,833;
26.03.2024;16:38;77,833;
26.03.2024;16:23;77,833;
26.03.2024;16:09;77,833;
26.03.2024;15:53;77,833;
26.03.2024;15:38;77,833;
26.03.2024;15:23;77,833;
26.03.2024;15:08;77,833;
26.03.2024;14:53;77,833;
26.03.2024;14:38;77,833;
26.03.2024;14:23;77,833;
26.03.2024;14:08;77,833;
26.03.2024;13:53;77,833;
26.03.2024;13:38;77,833;
26.03.2024;13:23;77,833;
26.03.2024;13:08;77,834;
26.03.2024;12:53;77,834;
26.03.2024;12:38;77,834;
26.03.2024;12:23;77,835;
26.03.2024;12:08;77,835;
26.03.2024;11:53;77,835;
26.03.2024;11:38;77,836;
26.03.2024;11:23;77,837;
26.03.2024;11:08;77,837;
26.03.2024;10:53;77,837;
26.03.2024;10:38;77,837;
26.03.2024;10:23;77,837;
26.03.2024;10:09;77,837;
26.03.2024;09:53;77,837;
26.03.2024;09:38;77,837;
26.03.2024;09:23;77,837;
26.03.2024;09:08;77,838;
26.03.2024;08:53;77,838;
26.03.2024;08:38;77,838;
26.03.2024;08:23;77,838;
26.03.2024;08:08;77,838;
26.03.2024;07:53;77,838;
26.03.2024;07:38;77,838;
26.03.2024;07:23;77,838;
26.03.2024;07:08;77,838;
26.03.2024;06:53;77,838;
26.03.2024;06:38;77,838;
26.03.2024;06:23;77,838;
26.03.2024;06:08;77,839;
26.03.2024;05:53;77,839;
26.03.2024;05:38;77,839;
26.03.2024;05:23;77,839;
26.03.2024;05:08;77,839;
26.03.2024;04:53;77,839;
26.03.2024;04:38;77,840;
26.03.2024;04:23;77,840;
26.03.2024;04:09;77,840;
26.03.2024;03:53;77,840;
26.03.2024;03:38;77,840;
26.03.2024;03:23;77,840;
26.03.2024;03:08;77,840;
26.03.2024;02:53;77,840;
26.03.2024;02:38;77,840;
26.03.2024;02:23;77,840;
26.03.2024;02:08;77,840;
26.03.2024;01:53;77,840;
26.03.2024;01:38;77,840;
26.03.2024;01:23;77,840;
26.03.2024;01:08;77,840;
26.03.2024;00:53;77,840;
26.03.2024;00:38;77,840;
26.03.2024;00:23;77,840;
26.03.2024;00:08;77,840;
25.03.2024;23:53;77,840;
25.03.2024;23:38;77,840;
25.03.2024;23:23;77,840;
25.03.2024;23:08;77,840;
25.03.2024;22:53;77,841;
25.03.2024;22:38;77,841;
25.03.2024;22:23;77,841;
25.03.2024;22:09;77,841;
25.03.2024;21:53;77,841;
25.03.2024;21:38;77,841;
25.03.2024;21:23;77,841;
25.03.2024;21:08;77,842;
25.03.2024;20:53;77,842;
25.03.2024;20:38;77,842;
25.03.2024;20:23;77,842;
25.03.2024;20:08;77,842;
25.03.2024;19:53;77,842;
25.03.2024;19:38;77,842;
25.03.2024;19:23;77,842;
25.03.2024;19:08;77,842;
25.03.2024;18:53;77,842;
25.03.2024;18:38;77,842;
25.03.2024;18:23;77,842;
25.03.2024;18:08;77,842;
25.03.2024;17:53;77,842;
25.03.2024;17:38;77,842;
25.03.2024;17:23;77,842;
25.03.2024;17:08;77,842;
25.03.2024;16:53;77,842;
25.03.2024;16:38;77,843;
25.03.2024;16:23;77,843;
25.03.2024;16:09;77,843;
25.03.2024;15:53;77,843;
25.03.2024;15:38;77,842;
25.03.2024;15:23;77,842;
25.03.2024;15:08;77,842;
25.03.2024;14:53;77,842;
25.03.2024;14:38;77,842;
25.03.2024;14:23;77,842;
25.03.2024;14:08;77,842;
25.03.2024;13:53;77,842;
25.03.2024;13:38;77,842;
25.03.2024;13:23;77,842;
25.03.2024;13:08;77,842;
25.03.2024;12:53;77,842;
25.03.2024;12:38;77,842;
25.03.2024;12:23;77,842;
25.03.2024;12:08;77,842;
25.03.2024;11:53;77,842;
25.03.2024;11:38;77,842;
25.03.2024;11:23;77,842;
25.03.2024;11:08;77,843;
25.03.2024;10:53;77,843;
25.03.2024;10:38;77,843;
25.03.2024;10:23;77,844;
25.03.2024;10:09;77,844;
25.03.2024;09:53;77,843;
25.03.2024;09:38;77,844;
25.03.2024;09:23;77,844;
25.03.2024;09:08;77,844;
25.03.2024;08:53;77,844;
25.03.2024;08:38;77,844;
25.03.2024;08:23;77,844;
25.03.2024;08:08;77,845;
25.03.2024;07:53;77,845;
25.03.2024;07:38;77,846;
25.03.2024;07:23;77,846;
25.03.2024;07:08;77,846;
25.03.2024;06:53;77,846;
25.03.2024;06:38;77,846;
25.03.2024;06:23;77,846;
25.03.2024;06:08;77,846;
25.03.2024;05:53;77,846;
25.03.2024;05:38;77,846;
25.03.2024;05:23;77,846;
25.03.2024;05:08;77,847;
25.03.2024;04:53;77,847;
25.03.2024;04:38;77,847;
25.03.2024;04:23;77,847;
25.03.2024;04:09;77,847;
25.03.2024;03:53;77,847;
25.03.2024;03:38;77,847;
25.03.2024;03:23;77,847;
25.03.2024;03:08;77,848;
25.03.2024;02:53;77,848;
25.03.2024;02:38;77,848;
25.03.2024;02:23;77,848;
25.03.2024;02:08;77,849;
25.03.2024;01:53;77,849;
25.03.2024;01:38;77,849;
25.03.2024;01:23;77,849;
25.03.2024;01:08;77,849;
25.03.2024;00:53;77,849;
25.03.2024;00:38;77,849;
25.03.2024;00:23;77,849;
25.03.2024;00:08;77,849;
24.03.2024;23:53;77,849;
24.03.2024;23:38;77,849;
24.03.2024;23:23;77,849;
24.03.2024;23:08;77,849;
24.03.2024;22:53;77,850;
24.03.2024;22:38;77,851;
24.03.2024;22:23;77,851;
24.03.2024;22:09;77,851;
24.03.2024;21:53;77,851;
24.03.2024;21:38;77,851;
24.03.2024;21:23;77,851;
24.03.2024;21:08;77,851;
24.03.2024;20:53;77,851;
24.03.2024;20:38;77,851;
24.03.2024;20:23;77,851;
24.03.2024;20:08;77,852;
24.03.2024;19:53;77,852;
24.03.2024;19:38;77,852;
24.03.2024;19:23;77,852;
24.03.2024;19:08;77,851;
24.03.2024;18:53;77,851;
24.03.2024;18:38;77,851;
24.03.2024;18:23;77,851;
24.03.2024;18:08;77,851;
24.03.2024;17:53;77,852;
24.03.2024;17:38;77,852;
24.03.2024;17:23;77,852;
24.03.2024;17:08;77,852;
24.03.2024;16:53;77,852;
24.03.2024;16:38;77,853;
24.03.2024;16:23;77,852;
24.03.2024;16:09;77,853;
24.03.2024;15:53;77,852;
24.03.2024;15:38;77,853;
24.03.2024;15:23;77,853;
24.03.2024;15:08;77,853;
24.03.2024;14:53;77,853;
24.03.2024;14:38;77,853;
24.03.2024;14:23;77,853;
24.03.2024;14:08;77,853;
24.03.2024;13:53;77,853;
24.03.2024;13:38;77,853;
24.03.2024;13:23;77,853;
24.03.2024;13:08;77,853;
24.03.2024;12:53;77,853;
24.03.2024;12:38;77,853;
24.03.2024;12:23;77,853;
24.03.2024;12:08;77,853;
24.03.2024;11:53;77,853;
24.03.2024;11:38;77,853;
24.03.2024;11:23;77,853;
24.03.2024;11:08;77,853;
24.03.2024;10:53;77,853;
24.03.2024;10:38;77,853;
24.03.2024;10:23;77,853;
24.03.2024;10:09;77,853;
24.03.2024;09:53;77,853;
24.03.2024;09:38;77,853;
24.03.2024;09:23;77,853;
24.03.2024;09:08;77,853;
24.03.2024;08:53;77,853;
24.03.2024;08:38;77,853;
24.03.2024;08:23;77,853;
24.03.2024;08:08;77,853;
24.03.2024;07:53;77,853;
24.03.2024;07:38;77,853;
24.03.2024;07:23;77,853;
24.03.2024;07:08;77,853;
24.03.2024;06:53;77,854;
24.03.2024;06:38;77,853;
24.03.2024;06:23;77,853;
24.03.2024;06:08;77,854;
24.03.2024;05:53;77,854;
24.03.2024;05:38;77,855;
24.03.2024;05:23;77,855;
24.03.2024;05:08;77,855;
24.03.2024;04:53;77,855;
24.03.2024;04:38;77,855;
24.03.2024;04:23;77,855;
24.03.2024;04:09;77,855;
24.03.2024;03:53;77,855;
24.03.2024;03:38;77,855;
24.03.2024;03:23;77,855;
24.03.2024;03:08;77,856;
24.03.2024;02:53;77,856;
24.03.2024;02:38;77,857;
24.03.2024;02:23;77,857;
24.03.2024;02:08;77,857;
24.03.2024;01:53;77,857;
24.03.2024;01:38;77,856;
24.03.2024;01:23;77,856;
24.03.2024;01:08;77,857;
24.03.2024;00:53;77,856;
24.03.2024;00:38;77,855;
24.03.2024;00:23;77,855;
24.03.2024;00:08;77,855;
23.03.2024;23:53;77,855;
23.03.2024;23:38;77,855;
23.03.2024;23:23;77,855;
23.03.2024;23:08;77,855;
23.03.2024;22:53;77,855;
23.03.2024;22:38;77,855;
23.03.2024;22:23;77,855;
23.03.2024;22:09;77,855;
23.03.2024;21:53;77,855;
23.03.2024;21:38;77,855;
23.03.2024;21:23;77,855;
23.03.2024;21:08;77,855;
23.03.2024;20:53;77,855;
23.03.2024;20:38;77,855;
23.03.2024;20:23;77,855;
23.03.2024;20:08;77,855;
23.03.2024;19:53;77,855;
23.03.2024;19:38;77,855;
23.03.2024;19:23;77,857;
23.03.2024;19:08;77,856;
23.03.2024;18:53;77,857;
23.03.2024;18:38;77,857;
23.03.2024;18:23;77,857;
23.03.2024;18:08;77,857;
23.03.2024;17:53;77,855;
23.03.2024;17:38;77,855;
23.03.2024;17:23;77,855;
23.03.2024;17:08;77,855;
23.03.2024;16:53;77,855;
23.03.2024;16:38;77,854;
23.03.2024;16:23;77,855;
23.03.2024;16:09;77,854;
23.03.2024;15:53;77,854;
23.03.2024;15:38;77,854;
23.03.2024;15:23;77,854;
23.03.2024;15:08;77,854;
23.03.2024;14:53;77,855;
23.03.2024;14:38;77,855;
23.03.2024;14:23;77,855;
23.03.2024;14:08;77,855;
23.03.2024;13:53;77,855;
23.03.2024;13:38;77,856;
23.03.2024;13:23;77,856;
23.03.2024;13:08;77,855;
23.03.2024;12:53;77,855;
23.03.2024;12:38;77,855;
23.03.2024;12:23;77,856;
23.03.2024;12:08;77,856;
23.03.2024;11:53;77,856;
23.03.2024;11:38;77,856;
23.03.2024;11:23;77,857;
23.03.2024;11:08;77,857;
23.03.2024;10:53;77,857;
23.03.2024;10:38;77,857;
23.03.2024;10:23;77,857;
23.03.2024;10:09;77,857;
23.03.2024;09:53;77,857;
23.03.2024;09:38;77,857;
23.03.2024;09:23;77,857;
23.03.2024;09:08;77,857;
23.03.2024;08:53;77,858;
23.03.2024;08:38;77,858;
23.03.2024;08:23;77,858;
23.03.2024;08:08;77,859;
23.03.2024;07:53;77,860;
23.03.2024;07:38;77,860;
23.03.2024;07:23;77,860;
23.03.2024;07:08;77,860;
23.03.2024;06:53;77,861;
23.03.2024;06:38;77,861;
23.03.2024;06:23;77,861;
23.03.2024;06:08;77,862;
23.03.2024;05:53;77,862;
23.03.2024;05:38;77,862;
23.03.2024;05:23;77,862;
23.03.2024;05:08;77,863;
23.03.2024;04:53;77,863;
23.03.2024;04:38;77,863;
23.03.2024;04:23;77,863;
23.03.2024;04:08;77,863;
23.03.2024;03:53;77,863;
23.03.2024;03:38;77,863;
23.03.2024;03:23;77,863;
23.03.2024;03:08;77,863;
23.03.2024;02:53;77,864;
23.03.2024;02:38;77,864;
23.03.2024;02:23;77,864;
23.03.2024;02:08;77,865;
23.03.2024;01:53;77,865;
23.03.2024;01:38;77,865;
23.03.2024;01:23;77,865;
23.03.2024;01:08;77,865;
23.03.2024;00:53;77,865;
23.03.2024;00:38;77,865;
23.03.2024;00:23;77,865;
23.03.2024;00:08;77,865;
22.03.2024;23:53;77,865;
22.03.2024;23:38;77,866;
22.03.2024;23:23;77,866;
22.03.2024;23:08;77,866;
22.03.2024;22:53;77,866;
22.03.2024;22:38;77,866;
22.03.2024;22:23;77,866;
22.03.2024;22:08;77,867;
22.03.2024;21:53;77,867;
22.03.2024;21:38;77,867;
22.03.2024;21:23;77,867;
22.03.2024;21:08;77,868;
22.03.2024;20:53;77,868;
22.03.2024;20:38;77,868;
22.03.2024;20:23;77,868;
22.03.2024;20:08;77,868;
22.03.2024;19:53;77,868;
22.03.2024;19:38;77,868;
22.03.2024;19:23;77,868;
22.03.2024;19:08;77,869;
22.03.2024;18:53;77,868;
22.03.2024;18:38;77,868;
22.03.2024;18:23;77,869;
22.03.2024;18:08;77,868;
22.03.2024;17:53;77,869;
22.03.2024;17:38;77,869;
22.03.2024;17:23;77,869;
22.03.2024;17:08;77,868;
22.03.2024;16:53;77,868;
22.03.2024;16:38;77,868;
22.03.2024;16:23;77,869;
22.03.2024;16:08;77,869;
22.03.2024;15:53;77,869;
22.03.2024;15:38;77,869;
22.03.2024;15:23;77,869;
22.03.2024;15:08;77,869;
22.03.2024;14:53;77,868;
22.03.2024;14:38;77,868;
22.03.2024;14:23;77,868;
22.03.2024;14:08;77,868;
22.03.2024;13:53;77,868;
22.03.2024;13:38;77,867;
22.03.2024;13:23;77,867;
22.03.2024;13:08;77,867;
22.03.2024;12:53;77,867;
22.03.2024;12:38;77,868;
22.03.2024;12:23;77,867;
22.03.2024;12:08;77,867;
22.03.2024;11:53;77,867;
22.03.2024;11:38;77,867;
22.03.2024;11:23;77,867;
22.03.2024;11:08;77,867;
22.03.2024;10:53;77,867;
22.03.2024;10:38;77,866;
22.03.2024;10:23;77,867;
22.03.2024;10:08;77,867;
22.03.2024;10:01;77,866;
22.03.2024;09:46;77,867;
22.03.2024;09:31;77,866;
22.03.2024;09:16;77,867;
22.03.2024;09:01;77,867;
22.03.2024;08:46;77,867;
22.03.2024;08:31;77,867;
22.03.2024;08:16;77,867;
22.03.2024;08:01;77,867;
22.03.2024;07:46;77,868;
22.03.2024;07:31;77,868;
22.03.2024;07:16;77,868;
22.03.2024;07:01;77,868;
22.03.2024;06:46;77,868;
22.03.2024;06:31;77,869;
22.03.2024;06:16;77,869;
22.03.2024;06:01;77,869;
22.03.2024;05:46;77,868;
22.03.2024;05:31;77,868;
22.03.2024;05:16;77,868;
22.03.2024;05:01;77,869;
22.03.2024;04:46;77,869;
22.03.2024;04:31;77,869;
22.03.2024;04:16;77,869;
22.03.2024;04:01;77,869;
22.03.2024;03:46;77,869;
22.03.2024;03:31;77,869;
22.03.2024;03:16;77,869;
22.03.2024;03:01;77,869;
22.03.2024;02:46;77,869;
22.03.2024;02:31;77,869;
22.03.2024;02:16;77,869;
22.03.2024;02:01;77,869;
22.03.2024;01:46;77,870;
22.03.2024;01:31;77,870;
22.03.2024;01:16;77,869;
22.03.2024;01:01;77,869;
22.03.2024;00:46;77,869;
22.03.2024;00:31;77,869;
22.03.2024;00:16;77,870;
22.03.2024;00:01;77,870;
21.03.2024;23:46;77,870;
21.03.2024;23:31;77,870;
21.03.2024;23:16;77,870;
21.03.2024;23:01;77,870;
21.03.2024;22:46;77,869;
21.03.2024;22:31;77,869;
21.03.2024;22:16;77,870;
21.03.2024;22:01;77,870;
21.03.2024;21:46;77,871;
21.03.2024;21:31;77,871;
21.03.2024;21:16;77,871;
21.03.2024;21:01;77,871;
21.03.2024;20:46;77,871;
21.03.2024;20:31;77,871;
21.03.2024;20:16;77,871;
21.03.2024;20:01;77,871;
21.03.2024;19:46;77,871;
21.03.2024;19:31;77,871;
21.03.2024;19:16;77,872;
21.03.2024;19:01;77,872;
21.03.2024;18:46;77,872;
21.03.2024;18:31;77,872;
21.03.2024;18:16;77,872;
21.03.2024;18:01;77,872;
21.03.2024;17:46;77,873;
21.03.2024;17:31;77,873;
21.03.2024;17:16;77,872;
21.03.2024;17:01;77,872;
21.03.2024;16:46;77,873;
21.03.2024;16:31;77,873;
21.03.2024;16:16;77,873;
21.03.2024;16:01;77,873;
21.03.2024;15:46;77,874;
21.03.2024;15:31;77,874;
21.03.2024;15:16;77,873;
21.03.2024;15:01;77,873;
21.03.2024;14:46;77,874;
21.03.2024;14:31;77,874;
21.03.2024;14:16;77,874;
21.03.2024;14:01;77,874;
21.03.2024;13:46;77,874;
21.03.2024;13:31;77,875;
21.03.2024;13:16;77,875;
21.03.2024;13:01;77,875;
21.03.2024;12:46;77,874;
21.03.2024;12:31;77,875;
21.03.2024;12:16;77,874;
21.03.2024;12:01;77,874;
21.03.2024;11:46;77,874;
21.03.2024;11:31;77,874;
21.03.2024;11:16;77,875;
21.03.2024;11:01;77,875;
21.03.2024;10:46;77,875;
21.03.2024;10:31;77,875;
21.03.2024;10:16;77,876;
21.03.2024;10:01;77,876;
21.03.2024;09:46;77,876;
21.03.2024;09:31;77,876;
21.03.2024;09:16;77,876;
21.03.2024;09:01;77,876;
21.03.2024;08:46;77,876;
21.03.2024;08:31;77,876;
21.03.2024;08:16;77,876;
21.03.2024;08:01;77,876;
21.03.2024;07:46;77,876;
21.03.2024;07:31;77,876;
21.03.2024;07:16;77,876;
21.03.2024;07:01;77,876;
21.03.2024;06:46;77,877;
21.03.2024;06:31;77,877;
21.03.2024;06:16;77,877;
21.03.2024;06:01;77,877;
21.03.2024;05:46;77,877;
21.03.2024;05:31;77,877;
21.03.2024;05:16;77,877;
21.03.2024;05:01;77,877;
21.03.2024;04:46;77,878;
21.03.2024;04:31;77,878;
21.03.2024;04:16;77,878;
21.03.2024;04:01;77,878;
21.03.2024;03:46;77,877;
21.03.2024;03:31;77,877;
21.03.2024;03:16;77,878;
21.03.2024;03:01;77,878;
21.03.2024;02:46;77,878;
21.03.2024;02:31;77,878;
21.03.2024;02:16;77,878;
21.03.2024;02:01;77,878;
21.03.2024;01:46;77,878;
21.03.2024;01:31;77,878;
21.03.2024;01:16;77,878;
21.03.2024;01:01;77,878;
21.03.2024;00:46;77,878;
21.03.2024;00:31;77,878;
21.03.2024;00:16;77,878;
21.03.2024;00:01;77,878;
20.03.2024;23:46;77,877;
20.03.2024;23:31;77,877;
20.03.2024;23:16;77,876;
20.03.2024;23:01;77,876;
20.03.2024;22:46;77,876;
20.03.2024;22:31;77,876;
20.03.2024;22:16;77,876;
20.03.2024;22:01;77,876;
20.03.2024;21:46;77,876;
20.03.2024;21:31;77,876;
20.03.2024;21:16;77,876;
20.03.2024;21:01;77,876;
20.03.2024;20:46;77,876;
20.03.2024;20:31;77,877;
20.03.2024;20:16;77,877;
20.03.2024;20:01;77,877;
20.03.2024;19:46;77,878;
20.03.2024;19:31;77,878;
20.03.2024;19:16;77,878;
20.03.2024;19:01;77,878;
20.03.2024;18:46;77,878;
20.03.2024;18:31;77,878;
20.03.2024;18:16;77,878;
20.03.2024;18:01;77,878;
20.03.2024;17:46;77,878;
20.03.2024;17:31;77,878;
20.03.2024;17:16;77,878;
20.03.2024;17:01;77,878;
20.03.2024;16:46;77,878;
20.03.2024;16:31;77,878;
20.03.2024;16:16;77,878;
20.03.2024;16:01;77,878;
20.03.2024;15:46;77,878;
20.03.2024;15:31;77,878;
20.03.2024;15:16;77,878;
20.03.2024;15:01;77,879;
20.03.2024;14:46;77,879;
20.03.2024;14:31;77,880;
20.03.2024;14:16;77,880;
20.03.2024;14:01;77,880;
20.03.2024;13:46;77,880;
20.03.2024;13:31;77,880;
20.03.2024;13:16;77,880;
20.03.2024;13:01;77,880;
20.03.2024;12:46;77,880;
20.03.2024;12:31;77,880;
20.03.2024;12:16;77,880;
20.03.2024;12:01;77,880;
20.03.2024;11:46;77,880;
20.03.2024;11:31;77,881;
20.03.2024;11:16;77,881;
20.03.2024;11:01;77,881;
20.03.2024;10:46;77,881;
20.03.2024;10:31;77,881;
20.03.2024;10:16;77,882;
20.03.2024;10:01;77,882;
20.03.2024;09:46;77,882;
20.03.2024;09:31;77,883;
20.03.2024;09:16;77,883;
20.03.2024;09:01;77,883;
20.03.2024;08:46;77,883;
20.03.2024;08:31;77,883;
20.03.2024;08:16;77,883;
20.03.2024;08:01;77,883;
20.03.2024;07:46;77,883;
20.03.2024;07:31;77,884;
20.03.2024;07:16;77,884;
20.03.2024;07:01;77,884;
20.03.2024;06:46;77,884;
20.03.2024;06:31;77,884;
20.03.2024;06:16;77,884;
20.03.2024;06:01;77,884;
20.03.2024;05:46;77,884;
20.03.2024;05:31;77,884;
20.03.2024;05:16;77,884;
20.03.2024;05:01;77,884;
20.03.2024;04:46;77,884;
20.03.2024;04:31;77,885;
20.03.2024;04:16;77,885;
20.03.2024;04:01;77,885;
20.03.2024;03:46;77,885;
20.03.2024;03:31;77,885;
20.03.2024;03:16;77,885;
20.03.2024;03:01;77,885;
20.03.2024;02:46;77,885;
20.03.2024;02:31;77,885;
20.03.2024;02:16;77,886;
20.03.2024;02:01;77,886;
20.03.2024;01:46;77,886;
20.03.2024;01:31;77,886;
20.03.2024;01:16;77,886;
20.03.2024;01:01;77,887;
20.03.2024;00:46;77,887;
20.03.2024;00:31;77,887;
20.03.2024;00:16;77,887;
20.03.2024;00:01;77,887;
19.03.2024;23:46;77,887;
19.03.2024;23:31;77,887;
19.03.2024;23:16;77,887;
19.03.2024;23:01;77,887;
19.03.2024;22:46;77,887;
19.03.2024;22:31;77,886;
19.03.2024;22:16;77,886;
19.03.2024;22:01;77,886;
19.03.2024;21:46;77,886;
19.03.2024;21:31;77,887;
19.03.2024;21:16;77,887;
19.03.2024;21:01;77,887;
19.03.2024;20:46;77,887;
19.03.2024;20:31;77,887;
19.03.2024;20:16;77,887;
19.03.2024;20:01;77,887;
19.03.2024;19:46;77,887;
19.03.2024;19:31;77,887;
19.03.2024;19:16;77,887;
19.03.2024;19:01;77,887;
19.03.2024;18:46;77,887;
19.03.2024;18:31;77,887;
19.03.2024;18:16;77,887;
19.03.2024;18:01;77,887;
19.03.2024;17:46;77,887;
19.03.2024;17:31;77,887;
19.03.2024;17:16;77,887;
19.03.2024;17:01;77,887;
19.03.2024;16:46;77,887;
19.03.2024;16:31;77,887;
19.03.2024;16:16;77,887;
19.03.2024;16:01;77,887;
19.03.2024;15:46;77,887;
19.03.2024;15:31;77,887;
19.03.2024;15:16;77,887;
19.03.2024;15:01;77,887;
19.03.2024;14:46;77,887;
19.03.2024;14:31;77,887;
19.03.2024;14:16;77,888;
19.03.2024;14:01;77,888;
19.03.2024;13:46;77,888;
19.03.2024;13:31;77,889;
19.03.2024;13:16;77,889;
19.03.2024;13:01;77,889;
19.03.2024;12:46;77,889;